GIPSM EIDL-EGPK

Flight info

Callsign GIPSM
Flight time 0h 59m
Altitude 5500
Route MAC
Aircraft BE58/L-SDFGRY/C

Departure

Time 2026-04-21 07:21
Airport Donegal Airport (EIDL)

Arrival

Time 2026-04-21 08:21
Airport Glasgow Prestwick Airport (EGPK)
Time Latitude Longitude Altitude Speed Heading
2026-04-21 07:14 55.03849 -8.34269 3 ft 0 kts 290°
2026-04-21 07:20 55.03850 -8.34270 3 ft 0 kts 295°
2026-04-21 07:20 55.03865 -8.34305 3 ft 5 kts 298°
2026-04-21 07:20 55.03888 -8.34397 4 ft 10 kts 311°
2026-04-21 07:20 55.03972 -8.34384 4 ft 18 kts 20°
2026-04-21 07:21 55.04239 -8.34218 4 ft 70 kts 22°
2026-04-21 07:21 55.04843 -8.33809 149 ft 103 kts 32°
2026-04-21 07:21 55.05533 -8.33355 479 ft 116 kts 29°
2026-04-21 07:21 55.06375 -8.32826 699 ft 135 kts 28°
2026-04-21 07:22 55.07238 -8.32333 1180 ft 124 kts 28°
2026-04-21 07:22 55.08063 -8.31862 1397 ft 126 kts 38°
2026-04-21 07:22 55.08743 -8.30949 1627 ft 120 kts 54°
2026-04-21 07:22 55.09308 -8.29901 1827 ft 123 kts 59°
2026-04-21 07:23 55.09856 -8.28670 1878 ft 132 kts 65°
2026-04-21 07:23 55.10292 -8.27272 2051 ft 130 kts 70°
2026-04-21 07:23 55.10732 -8.25864 2274 ft 129 kts 70°
2026-04-21 07:23 55.11093 -8.24438 2429 ft 129 kts 76°
2026-04-21 07:24 55.11409 -8.22949 2603 ft 129 kts 78°
2026-04-21 07:24 55.11689 -8.21415 2792 ft 128 kts 81°
2026-04-21 07:24 55.11852 -8.19836 2943 ft 128 kts 89°
2026-04-21 07:24 55.11939 -8.18254 3119 ft 128 kts 88°
2026-04-21 07:25 55.12137 -8.16671 3281 ft 132 kts 77°
2026-04-21 07:25 55.12460 -8.15043 3457 ft 132 kts 76°
2026-04-21 07:25 55.12779 -8.13512 3642 ft 131 kts 76°
2026-04-21 07:25 55.13121 -8.11958 3791 ft 133 kts 74°
2026-04-21 07:26 55.13512 -8.10414 3944 ft 133 kts 72°
2026-04-21 07:26 55.13904 -8.08885 4068 ft 134 kts 73°
2026-04-21 07:26 55.14277 -8.07317 4213 ft 133 kts 75°
2026-04-21 07:26 55.14599 -8.05729 4349 ft 133 kts 77°
2026-04-21 07:27 55.14900 -8.04120 4459 ft 134 kts 78°
2026-04-21 07:27 55.15171 -8.02477 4594 ft 133 kts 80°
2026-04-21 07:27 55.15374 -8.00841 4720 ft 133 kts 84°
2026-04-21 07:27 55.15516 -7.99124 4856 ft 132 kts 86°
2026-04-21 07:28 55.15591 -7.97392 4988 ft 132 kts 91°
2026-04-21 07:28 55.15640 -7.95663 5086 ft 135 kts 84°
2026-04-21 07:28 55.15816 -7.93957 5215 ft 135 kts 81°
2026-04-21 07:28 55.16076 -7.92284 5331 ft 136 kts 78°
2026-04-21 07:29 55.16326 -7.90542 5349 ft 136 kts 83°
2026-04-21 07:29 55.16484 -7.88861 5456 ft 130 kts 82°
2026-04-21 07:29 55.16685 -7.87234 5479 ft 132 kts 82°
2026-04-21 07:29 55.16864 -7.85568 5520 ft 131 kts 81°
2026-04-21 07:30 55.17125 -7.83933 5537 ft 133 kts 78°
2026-04-21 07:30 55.17380 -7.82257 5529 ft 135 kts 80°
2026-04-21 07:30 55.17636 -7.80584 5557 ft 135 kts 77°
2026-04-21 07:30 55.17930 -7.78829 5532 ft 137 kts 78°
2026-04-21 07:31 55.18183 -7.77134 5574 ft 135 kts 79°
2026-04-21 07:31 55.18430 -7.75454 5557 ft 137 kts 79°
2026-04-21 07:31 55.18666 -7.73728 5569 ft 137 kts 80°
2026-04-21 07:31 55.18875 -7.72003 5587 ft 136 kts 82°
2026-04-21 07:32 55.19073 -7.70275 5590 ft 136 kts 81°
2026-04-21 07:32 55.19311 -7.68592 5606 ft 136 kts 79°
2026-04-21 07:32 55.19563 -7.66891 5596 ft 137 kts 79°
2026-04-21 07:32 55.19812 -7.65191 5591 ft 138 kts 79°
2026-04-21 07:33 55.20063 -7.63445 5581 ft 139 kts 79°
2026-04-21 07:33 55.20300 -7.61723 5580 ft 139 kts 80°
2026-04-21 07:33 55.20492 -7.59950 5588 ft 138 kts 84°
2026-04-21 07:33 55.20596 -7.58212 5578 ft 138 kts 87°
2026-04-21 07:34 55.20719 -7.56488 5593 ft 137 kts 83°
2026-04-21 07:34 55.20913 -7.54794 5590 ft 138 kts 80°
2026-04-21 07:34 55.21153 -7.53079 5574 ft 139 kts 78°
2026-04-21 07:34 55.21404 -7.51426 5579 ft 139 kts 77°
2026-04-21 07:35 55.21681 -7.49756 5570 ft 140 kts 77°
2026-04-21 07:35 55.21954 -7.48092 5578 ft 139 kts 77°
2026-04-21 07:35 55.22234 -7.46454 5575 ft 139 kts 76°
2026-04-21 07:35 55.22521 -7.44782 5567 ft 139 kts 77°
2026-04-21 07:36 55.22786 -7.43082 5582 ft 138 kts 79°
2026-04-21 07:36 55.22988 -7.41367 5576 ft 138 kts 83°
2026-04-21 07:36 55.23090 -7.39616 5573 ft 138 kts 88°
2026-04-21 07:36 55.23186 -7.37923 5575 ft 138 kts 84°
2026-04-21 07:37 55.23336 -7.36228 5574 ft 138 kts 82°
2026-04-21 07:37 55.23476 -7.34548 5575 ft 138 kts 86°
2026-04-21 07:37 55.23583 -7.32821 5555 ft 139 kts 86°
2026-04-21 07:37 55.23655 -7.31082 5574 ft 138 kts 90°
2026-04-21 07:38 55.23647 -7.29343 5576 ft 138 kts 94°
2026-04-21 07:38 55.23517 -7.27587 5569 ft 138 kts 101°
2026-04-21 07:38 55.23470 -7.25912 5569 ft 139 kts 79°
2026-04-21 07:38 55.23758 -7.24228 5511 ft 143 kts 77°
2026-04-21 07:39 55.24031 -7.22528 5508 ft 141 kts 78°
2026-04-21 07:39 55.24305 -7.20783 5511 ft 140 kts 78°
2026-04-21 07:39 55.24577 -7.19046 5511 ft 140 kts 78°
2026-04-21 07:39 55.24850 -7.17293 5508 ft 140 kts 78°
2026-04-21 07:40 55.25113 -7.15560 5509 ft 140 kts 82°
2026-04-21 07:40 55.25207 -7.13752 5514 ft 139 kts 88°
2026-04-21 07:40 55.25265 -7.11971 5510 ft 139 kts 88°
2026-04-21 07:40 55.25324 -7.10185 5508 ft 139 kts 88°
2026-04-21 07:41 55.25383 -7.08453 5515 ft 139 kts 88°
2026-04-21 07:41 55.25442 -7.06689 5513 ft 139 kts 88°
2026-04-21 07:41 55.25504 -7.04891 5511 ft 139 kts 88°
2026-04-21 07:41 55.25566 -7.03096 5509 ft 139 kts 88°
2026-04-21 07:42 55.25627 -7.01328 5509 ft 139 kts 88°
2026-04-21 07:42 55.25690 -6.99523 5509 ft 139 kts 88°
2026-04-21 07:42 55.25751 -6.97759 5510 ft 139 kts 88°
2026-04-21 07:42 55.25812 -6.95995 5508 ft 139 kts 88°
2026-04-21 07:43 55.25874 -6.94196 5516 ft 139 kts 88°
2026-04-21 07:43 55.25936 -6.92429 5510 ft 140 kts 88°
2026-04-21 07:43 55.25996 -6.90668 5513 ft 139 kts 88°
2026-04-21 07:43 55.26057 -6.88896 5513 ft 139 kts 88°
2026-04-21 07:44 55.26115 -6.87141 5514 ft 139 kts 88°
2026-04-21 07:44 55.26173 -6.85378 5522 ft 138 kts 88°
2026-04-21 07:44 55.26234 -6.83594 5519 ft 139 kts 88°
2026-04-21 07:44 55.26293 -6.81868 5518 ft 139 kts 88°
2026-04-21 07:45 55.26351 -6.80130 5522 ft 139 kts 88°
2026-04-21 07:45 55.26408 -6.78411 5521 ft 139 kts 88°
2026-04-21 07:45 55.26465 -6.76653 5522 ft 139 kts 88°
2026-04-21 07:45 55.26519 -6.74935 5525 ft 139 kts 88°
2026-04-21 07:46 55.26577 -6.73224 5524 ft 139 kts 88°
2026-04-21 07:46 55.26636 -6.71490 5526 ft 139 kts 88°
2026-04-21 07:46 55.26694 -6.69765 5525 ft 139 kts 88°
2026-04-21 07:46 55.26750 -6.68038 5523 ft 139 kts 88°
2026-04-21 07:47 55.26806 -6.66296 5520 ft 139 kts 88°
2026-04-21 07:47 55.26860 -6.64558 5517 ft 139 kts 88°
2026-04-21 07:47 55.26913 -6.62852 5512 ft 139 kts 88°
2026-04-21 07:47 55.26965 -6.61136 5516 ft 139 kts 88°
2026-04-21 07:48 55.27016 -6.59405 5516 ft 139 kts 88°
2026-04-21 07:48 55.27075 -6.57662 5513 ft 139 kts 88°
2026-04-21 07:48 55.27134 -6.55913 5512 ft 139 kts 88°
2026-04-21 07:48 55.27191 -6.54163 5513 ft 138 kts 88°
2026-04-21 07:49 55.27249 -6.52381 5513 ft 138 kts 88°
2026-04-21 07:49 55.27306 -6.50603 5513 ft 138 kts 88°
2026-04-21 07:49 55.27361 -6.48806 5510 ft 138 kts 88°
2026-04-21 07:49 55.27415 -6.47049 5518 ft 138 kts 88°
2026-04-21 07:50 55.27467 -6.45291 5523 ft 138 kts 88°
2026-04-21 07:50 55.27518 -6.43555 5525 ft 138 kts 88°
2026-04-21 07:50 55.27568 -6.41811 5528 ft 138 kts 88°
2026-04-21 07:50 55.27617 -6.40091 5529 ft 138 kts 88°
2026-04-21 07:51 55.27665 -6.38339 5530 ft 138 kts 88°
2026-04-21 07:51 55.27711 -6.36633 5531 ft 138 kts 88°
2026-04-21 07:51 55.27766 -6.34875 5530 ft 138 kts 88°
2026-04-21 07:51 55.27813 -6.33151 5534 ft 138 kts 89°
2026-04-21 07:52 55.27857 -6.31446 5534 ft 138 kts 89°
2026-04-21 07:52 55.27902 -6.29737 5537 ft 138 kts 89°
2026-04-21 07:52 55.27948 -6.28050 5537 ft 138 kts 89°
2026-04-21 07:52 55.27994 -6.26364 5540 ft 138 kts 89°
2026-04-21 07:53 55.28041 -6.24667 5541 ft 139 kts 89°
2026-04-21 07:53 55.28081 -6.23211 5541 ft 139 kts 89°
2026-04-21 07:53 55.28129 -6.21509 5540 ft 139 kts 88°
2026-04-21 07:53 55.28176 -6.19819 5529 ft 140 kts 88°
2026-04-21 07:54 55.28225 -6.18068 5457 ft 143 kts 88°
2026-04-21 07:54 55.28274 -6.16317 5450 ft 141 kts 88°
2026-04-21 07:54 55.28321 -6.14619 5449 ft 140 kts 88°
2026-04-21 07:54 55.28369 -6.12904 5450 ft 140 kts 88°
2026-04-21 07:55 55.28418 -6.11180 5445 ft 139 kts 88°
2026-04-21 07:55 55.28466 -6.09446 5445 ft 139 kts 88°
2026-04-21 07:55 55.28513 -6.07769 5450 ft 139 kts 88°
2026-04-21 07:55 55.28560 -6.06058 5452 ft 139 kts 88°
2026-04-21 07:56 55.28607 -6.04368 5449 ft 139 kts 88°
2026-04-21 07:56 55.28654 -6.02658 5448 ft 139 kts 88°
2026-04-21 07:56 55.28700 -6.00945 5447 ft 139 kts 88°
2026-04-21 07:56 55.28746 -5.99250 5453 ft 138 kts 88°
2026-04-21 07:57 55.28794 -5.97479 5453 ft 138 kts 88°
2026-04-21 07:57 55.28841 -5.95740 5457 ft 137 kts 88°
2026-04-21 07:57 55.28886 -5.94034 5461 ft 137 kts 88°
2026-04-21 07:57 55.28932 -5.92315 5459 ft 137 kts 88°
2026-04-21 07:58 55.28978 -5.90590 5461 ft 137 kts 88°
2026-04-21 07:58 55.29023 -5.88864 5460 ft 138 kts 88°
2026-04-21 07:58 55.29066 -5.87176 5459 ft 138 kts 88°
2026-04-21 07:58 55.29110 -5.85426 5461 ft 138 kts 88°
2026-04-21 07:59 55.29153 -5.83708 5462 ft 138 kts 88°
2026-04-21 07:59 55.29199 -5.81950 5463 ft 138 kts 88°
2026-04-21 07:59 55.29243 -5.80221 5462 ft 139 kts 88°
2026-04-21 07:59 55.29286 -5.78463 5459 ft 138 kts 88°
2026-04-21 08:00 55.29328 -5.76717 5460 ft 138 kts 89°
2026-04-21 08:00 55.29369 -5.74988 5464 ft 138 kts 88°
2026-04-21 08:00 55.29413 -5.73263 5464 ft 138 kts 88°
2026-04-21 08:00 55.29457 -5.71531 5464 ft 138 kts 88°
2026-04-21 08:01 55.29500 -5.69785 5463 ft 138 kts 88°
2026-04-21 08:01 55.29542 -5.68048 5459 ft 138 kts 88°
2026-04-21 08:01 55.29582 -5.66317 5463 ft 138 kts 88°
2026-04-21 08:02 55.29660 -5.62878 5466 ft 138 kts 88°
2026-04-21 08:02 55.29702 -5.61105 5466 ft 139 kts 88°
2026-04-21 08:02 55.29746 -5.59401 5465 ft 139 kts 88°
2026-04-21 08:02 55.29789 -5.57637 5464 ft 139 kts 88°
2026-04-21 08:03 55.29831 -5.55931 5461 ft 139 kts 88°
2026-04-21 08:03 55.29871 -5.54202 5462 ft 139 kts 88°
2026-04-21 08:03 55.29911 -5.52444 5460 ft 139 kts 88°
2026-04-21 08:03 55.29951 -5.50654 5459 ft 139 kts 88°
2026-04-21 08:04 55.29989 -5.48874 5462 ft 138 kts 88°
2026-04-21 08:04 55.30025 -5.47123 5461 ft 138 kts 88°
2026-04-21 08:04 55.30061 -5.45314 5462 ft 138 kts 88°
2026-04-21 08:04 55.30098 -5.43512 5460 ft 138 kts 88°
2026-04-21 08:05 55.30142 -5.41721 5457 ft 138 kts 88°
2026-04-21 08:05 55.30184 -5.40001 5457 ft 138 kts 88°
2026-04-21 08:05 55.30225 -5.38237 5458 ft 138 kts 88°
2026-04-21 08:05 55.30266 -5.36454 5458 ft 138 kts 88°
2026-04-21 08:06 55.30304 -5.34697 5459 ft 138 kts 89°
2026-04-21 08:06 55.30334 -5.32946 5407 ft 140 kts 89°
2026-04-21 08:06 55.30363 -5.31172 5344 ft 141 kts 89°
2026-04-21 08:06 55.30393 -5.29478 5288 ft 141 kts 89°
2026-04-21 08:07 55.30425 -5.27730 5229 ft 141 kts 89°
2026-04-21 08:07 55.30456 -5.25999 5173 ft 141 kts 89°
2026-04-21 08:07 55.30489 -5.24291 5100 ft 141 kts 89°
2026-04-21 08:07 55.30522 -5.22565 5006 ft 141 kts 89°
2026-04-21 08:08 55.30556 -5.20844 4912 ft 141 kts 89°
2026-04-21 08:08 55.30590 -5.19127 4821 ft 140 kts 89°
2026-04-21 08:08 55.30623 -5.17411 4734 ft 140 kts 89°
2026-04-21 08:08 55.30657 -5.15707 4642 ft 139 kts 89°
2026-04-21 08:09 55.30690 -5.14012 4553 ft 138 kts 89°
2026-04-21 08:09 55.30723 -5.12347 4458 ft 137 kts 89°
2026-04-21 08:09 55.30756 -5.10682 4362 ft 136 kts 89°
2026-04-21 08:09 55.30788 -5.09012 4267 ft 136 kts 89°
2026-04-21 08:10 55.30820 -5.07355 4171 ft 135 kts 89°
2026-04-21 08:10 55.30851 -5.05719 4076 ft 135 kts 89°
2026-04-21 08:10 55.30883 -5.04077 3980 ft 134 kts 89°
2026-04-21 08:10 55.30914 -5.02433 3888 ft 134 kts 89°
2026-04-21 08:11 55.30945 -5.00799 3795 ft 134 kts 89°
2026-04-21 08:11 55.30976 -4.99171 3701 ft 134 kts 89°
2026-04-21 08:11 55.31007 -4.97522 3605 ft 133 kts 89°
2026-04-21 08:11 55.31035 -4.95905 3512 ft 133 kts 89°
2026-04-21 08:12 55.31001 -4.94302 3407 ft 133 kts 95°
2026-04-21 08:12 55.30856 -4.92692 3312 ft 132 kts 100°
2026-04-21 08:12 55.30679 -4.91101 3192 ft 133 kts 93°
2026-04-21 08:12 55.30733 -4.89487 3082 ft 133 kts 82°
2026-04-21 08:13 55.31041 -4.87944 2986 ft 135 kts 67°
2026-04-21 08:13 55.31534 -4.86539 2893 ft 136 kts 60°
2026-04-21 08:13 55.32151 -4.85264 2799 ft 138 kts 52°
2026-04-21 08:13 55.32860 -4.84111 2696 ft 139 kts 49°
2026-04-21 08:14 55.33620 -4.83067 2605 ft 141 kts 43°
2026-04-21 08:14 55.34439 -4.82098 2519 ft 141 kts 40°
2026-04-21 08:14 55.35274 -4.81206 2429 ft 141 kts 38°
2026-04-21 08:14 55.36120 -4.80334 2352 ft 140 kts 38°
2026-04-21 08:15 55.36959 -4.79475 2279 ft 139 kts 38°
2026-04-21 08:15 55.37775 -4.78559 2199 ft 138 kts 39°
2026-04-21 08:15 55.38598 -4.77693 2108 ft 139 kts 36°
2026-04-21 08:15 55.39482 -4.76949 1968 ft 143 kts 30°
2026-04-21 08:16 55.40394 -4.76290 1871 ft 140 kts 30°
2026-04-21 08:16 55.41235 -4.75421 1731 ft 139 kts 43°
2026-04-21 08:16 55.41879 -4.74201 1597 ft 136 kts 58°
2026-04-21 08:16 55.42396 -4.72801 1513 ft 134 kts 62°
2026-04-21 08:17 55.42827 -4.71316 1418 ft 134 kts 68°
2026-04-21 08:17 55.43154 -4.69723 1303 ft 137 kts 73°
2026-04-21 08:17 55.43377 -4.68103 1238 ft 135 kts 78°
2026-04-21 08:17 55.43501 -4.66550 1288 ft 121 kts 83°
2026-04-21 08:18 55.43564 -4.65183 1215 ft 106 kts 83°
2026-04-21 08:18 55.43691 -4.63897 994 ft 108 kts 71°
2026-04-21 08:18 55.44074 -4.62826 864 ft 106 kts 46°
2026-04-21 08:18 55.44652 -4.62059 795 ft 99 kts 36°
2026-04-21 08:19 55.45250 -4.61524 735 ft 94 kts 28°
2026-04-21 08:19 55.45844 -4.61102 677 ft 90 kts 28°
2026-04-21 08:19 55.46414 -4.60655 602 ft 90 kts 29°
2026-04-21 08:19 55.47001 -4.60204 529 ft 91 kts 29°
2026-04-21 08:20 55.47583 -4.59731 424 ft 96 kts 28°
2026-04-21 08:20 55.48204 -4.59229 256 ft 100 kts 26°
2026-04-21 08:20 55.48853 -4.58732 86 ft 100 kts 26°
2026-04-21 08:20 55.49417 -4.58284 67 ft 73 kts 21°
2026-04-21 08:21 55.49688 -4.58109 67 ft 18 kts 359°
2026-04-21 08:21 55.49764 -4.58249 67 ft 16 kts 302°
2026-04-21 08:21 55.49867 -4.58286 67 ft 16 kts 24°
2026-04-21 08:21 55.49973 -4.58201 67 ft 16 kts 25°
2026-04-21 08:22 55.50077 -4.58120 67 ft 16 kts 23°
2026-04-21 08:22 55.50180 -4.58042 67 ft 16 kts 24°
2026-04-21 08:22 55.50275 -4.58057 67 ft 16 kts 303°
2026-04-21 08:22 55.50338 -4.58240 67 ft 18 kts 300°
2026-04-21 08:23 55.50409 -4.58442 67 ft 20 kts 301°
2026-04-21 08:23 55.50484 -4.58658 67 ft 21 kts 301°
2026-04-21 08:23 55.50546 -4.58880 67 ft 19 kts 294°
2026-04-21 08:23 55.50613 -4.59099 67 ft 20 kts 301°
2026-04-21 08:24 55.50675 -4.59277 67 ft 11 kts 321°
2026-04-21 08:24 55.50726 -4.59192 67 ft 11 kts 66°
2026-04-21 08:24 55.50761 -4.59053 67 ft 12 kts 59°
2026-04-21 08:24 55.50830 -4.58983 67 ft 12 kts 65°
2026-04-21 08:25 55.50870 -4.58837 67 ft 13 kts 63°
2026-04-21 08:25 55.50910 -4.58687 67 ft 13 kts 64°
2026-04-21 08:25 55.50951 -4.58532 67 ft 13 kts 65°
2026-04-21 08:25 55.50991 -4.58376 67 ft 14 kts 65°
2026-04-21 08:26 55.51033 -4.58223 67 ft 13 kts 48°
2026-04-21 08:26 55.51078 -4.58153 67 ft 0 kts 124°